Guymon, OK

3:05 AM CST on November 19, 2017 (GMT -0600)
Guymon Municipal

Weather History for KGUY - January, 2015

Change the Weather History Date:

Saturday, January 31, 2015

  Actual Average Record
Temperature  
Mean Temperature 40 °F 37 °F  
Max Temperature 45 °F 51 °F 77 °F (2006)
Min Temperature 35 °F 22 °F 9 °F (2011)
Degree Days  
Heating Degree Days 25 28  
Month to date heating degree days 859 912  
Since 1 July heating degree days 2484 2728  
Cooling Degree Days 0 0  
Month to date cooling degree days 0 0  
Year to date cooling degree days 0 0  
Moisture  
Dew Point 36 °F    
Average Humidity 84    
Maximum Humidity 92    
Minimum Humidity 76    
Precipitation  
Precipitation 0.23 in 0.02 in 0.23 in (2015)
Month to date precipitation 1.21 0.40  
Year to date precipitation 1.21 0.40  
Snow  
Snow 0.00 in - - ()
Month to date snowfall 5.5  
Since 1 July snowfall 10.3  
Snow Depth 0.00 in    
Sea Level Pressure  
Sea Level Pressure 29.93 in    
Wind  
Wind Speed 13 mph (SSW)    
Max Wind Speed 23 mph    
Max Gust Speed 27 mph    
Visibility 9 miles    
Events Rain    
T = Trace of Precipitation, MM = Missing Value Source: NWS Daily Summary

Daily Weather History Graph

Daily Weather History Graph

Search for Another Location

Airport or City:

Trip Planner

Search our weather history database for the weather conditions in past years. The results will help you decide how hot, cold, wet, or windy it might be!

Date:

Astronomy

Jan. 31, 2015 Rise Set
Actual Time 7:48 AM CST 6:10 PM CST
Civil Twilight 7:21 AM CST 6:37 PM CST
Nautical Twilight 6:50 AM CST 7:08 PM CST
Astronomical Twilight 6:20 AM CST 7:39 PM CST
Moon 3:38 PM CST (1/31) 5:10 AM CST (1/31)
Length of Visible Light 11h 16m
Length of Day
10h 21m
Waxing Gibbous, 90% of the Moon is Illuminated
Jan 31
Waxing Gibbous
Feb 3
Full
Feb 11
Last Quarter
Feb 18
New
Feb 25
First Quarter

Hourly Weather History & Observations

Time (CST) Temp. Windchill Dew Point Humidity Pressure Visibility Wind Dir Wind Speed Gust Speed Precip Events Conditions
12:07 AM 36.0 °F 28.0 °F 33.1 °F 89% 30.17 in 9.0 mi South 11.5 mph - 0.01 in Rain Light Rain
12:29 AM 36.0 °F 28.0 °F 33.1 °F 89% 30.16 in 7.0 mi South 11.5 mph - 0.02 in Rain Light Rain
12:53 AM 36.0 °F 27.5 °F 33.1 °F 89% 30.16 in 7.0 mi South 12.7 mph - 0.05 in Rain Light Rain
1:18 AM 36.0 °F 27.5 °F 34.0 °F 93% 30.15 in 8.0 mi South 12.7 mph - 0.01 in Rain Light Rain
1:35 AM 36.0 °F 27.5 °F 34.0 °F 93% 30.14 in 7.0 mi South 12.7 mph - 0.02 in Rain Light Rain
1:53 AM 36.0 °F 28.5 °F 34.0 °F 93% 30.13 in 6.0 mi South 10.4 mph - 0.03 in Rain Rain
2:19 AM 35.1 °F 24.8 °F 33.1 °F 92% 30.11 in 8.0 mi South 17.3 mph 21.9 mph 0.03 in Rain Light Rain
2:53 AM 35.1 °F 25.5 °F 33.1 °F 92% 30.10 in 8.0 mi South 15.0 mph - 0.07 in Rain Light Rain
3:53 AM 35.1 °F 25.9 °F 33.1 °F 92% 30.08 in 8.0 mi South 13.8 mph 21.9 mph 0.05 in Rain Light Rain
4:53 AM 35.1 °F 26.4 °F 33.1 °F 92% 30.06 in 8.0 mi South 12.7 mph - 0.01 in Rain Light Rain
5:00 AM 35.1 °F 25.9 °F 33.1 °F 92% 30.04 in 8.0 mi South 13.8 mph - 0.00 in Rain Light Rain
5:53 AM 35.1 °F 26.9 °F 33.1 °F 92% 30.03 in 9.0 mi South 11.5 mph - 0.01 in Rain Light Rain
6:53 AM 35.1 °F 26.9 °F 34.0 °F 96% 30.01 in 10.0 mi South 11.5 mph - 0.00 in   Overcast
7:53 AM 36.0 °F 28.5 °F 34.0 °F 93% 30.01 in 10.0 mi South 10.4 mph - 0.00 in Rain Light Rain
8:09 AM 36.0 °F 28.0 °F 34.0 °F 93% 30.00 in 10.0 mi South 11.5 mph - 0.00 in Rain Light Rain
8:53 AM 36.0 °F 28.0 °F 34.0 °F 93% 30.00 in 9.0 mi South 11.5 mph - 0.00 in   Overcast
9:53 AM 36.0 °F 26.3 °F 34.0 °F 93% 29.99 in 8.0 mi South 16.1 mph - N/A   Overcast
10:53 AM 37.0 °F 27.4 °F 35.1 °F 93% 29.97 in 10.0 mi South 17.3 mph - N/A   Overcast
11:53 AM 39.0 °F 29.9 °F 36.0 °F 89% 29.94 in 10.0 mi South 17.3 mph - 0.00 in   Overcast
12:20 PM 39.9 °F 30.2 °F 37.0 °F 89% 29.91 in 10.0 mi South 20.7 mph - 0.00 in   Overcast
12:53 PM 39.9 °F 30.2 °F 37.0 °F 89% 29.89 in 10.0 mi South 20.7 mph - 0.00 in Rain Light Rain
1:53 PM 41.0 °F 32.8 °F 37.0 °F 86% 29.83 in 10.0 mi South 16.1 mph - 0.00 in   Overcast
2:53 PM 43.0 °F 35.4 °F 37.0 °F 80% 29.81 in 10.0 mi SSW 16.1 mph - 0.00 in   Overcast
3:13 PM 43.0 °F 35.1 °F 37.0 °F 80% 29.81 in 10.0 mi SSW 17.3 mph - N/A   Overcast
3:53 PM 42.1 °F 34.5 °F 37.0 °F 82% 29.80 in 10.0 mi SSW 15.0 mph - N/A   Overcast
4:37 PM 43.0 °F 35.7 °F 37.9 °F 82% 29.78 in 10.0 mi SSW 15.0 mph - N/A   Mostly Cloudy
4:45 PM 44.1 °F 37.4 °F 37.9 °F 79% 29.78 in 10.0 mi SSW 13.8 mph - N/A   Mostly Cloudy
4:53 PM 44.1 °F 37.1 °F 37.9 °F 79% 29.77 in 10.0 mi SSW 15.0 mph - N/A   Mostly Cloudy
5:01 PM 44.1 °F 37.7 °F 37.0 °F 76% 29.78 in 10.0 mi SSW 12.7 mph - N/A   Mostly Cloudy
5:53 PM 45.0 °F 38.5 °F 37.9 °F 76% 29.77 in 10.0 mi SSW 13.8 mph - N/A   Overcast
6:53 PM 39.9 °F 35.1 °F 36.0 °F 86% 29.79 in 10.0 mi SSW 6.9 mph - N/A   Partly Cloudy
7:53 PM 39.0 °F 34.0 °F 36.0 °F 89% 29.79 in 10.0 mi SSW 6.9 mph - N/A   Overcast
8:53 PM 41.0 °F 35.8 °F 37.0 °F 86% 29.79 in 10.0 mi SW 8.1 mph - N/A   Overcast
9:30 PM 41.0 °F 35.2 °F 37.9 °F 89% 29.80 in 10.0 mi WNW 9.2 mph - N/A   Overcast
9:53 PM 42.1 °F 36.6 °F 37.0 °F 82% 29.80 in 10.0 mi West 9.2 mph - N/A   Overcast
10:36 PM 42.1 °F 37.7 °F 39.0 °F 89% 29.81 in 10.0 mi NW 6.9 mph - 0.00 in   Overcast
10:53 PM 42.1 °F 35.7 °F 39.0 °F 89% 29.81 in 10.0 mi NNW 11.5 mph - 0.00 in Rain Light Rain
11:14 PM 39.9 °F 32.1 °F 37.9 °F 93% 29.82 in 10.0 mi NNW 13.8 mph - 0.02 in Rain Light Rain
11:53 PM 39.9 °F 34.5 °F 37.0 °F 89% 29.83 in 10.0 mi NNW 8.1 mph - 0.02 in Rain Light Rain